This is the latest recevied weather packets stored in our database for station/object K5BOU. If no packets are shown the sender has not sent any weather packets the latest 10 day(s).
| Time | Temp. | Humidity | Pressure | Rain* | Wind** | Luminosity | Snow |
|---|---|---|---|---|---|---|---|
| 1777867106 | 16.67° C | 80% | 1016.7 hPa | 0 mm | - | 0 W/m² | - |
| 1777866804 | 17.22° C | 80% | 1016.6 hPa | 0 mm | - | 0 W/m² | - |
| 1777866501 | 17.78° C | 78% | 1016.7 hPa | 0 mm | - | 0 W/m² | - |
| 1777866199 | 17.78° C | 77% | 1016.3 hPa | 0 mm | - | 0 W/m² | - |
| 1777865895 | 18.33° C | 76% | 1016.4 hPa | 0 mm | - | 0 W/m² | - |
| 1777865594 | 18.33° C | 75% | 1016.6 hPa | 0 mm | - | 0 W/m² | - |
| 1777865290 | 18.33° C | 74% | 1016.6 hPa | 0 mm | - | 0 W/m² | - |
| 1777864987 | 18.89° C | 73% | 1016.6 hPa | 0 mm | - | 0 W/m² | - |
| 1777864684 | 18.89° C | 72% | 1016.6 hPa | 0 mm | - | 0 W/m² | - |
| 1777864381 | 18.89° C | 72% | 1016.4 hPa | 0 mm | - | 0 W/m² | - |
| 1777864077 | 18.89° C | 72% | 1016.5 hPa | 0 mm | - | 0 W/m² | - |
| 1777863774 | 18.89° C | 72% | 1016.4 hPa | 0 mm | - | 0 W/m² | - |
| 1777863470 | 18.89° C | 72% | 1016.6 hPa | 0 mm | - | 0 W/m² | - |
| 1777863168 | 19.44° C | 72% | 1016.4 hPa | 0 mm | - | 0 W/m² | - |
| 1777862864 | 19.44° C | 71% | 1016.6 hPa | 0 mm | - | 0 W/m² | - |
| 1777862561 | 19.44° C | 70% | 1016.4 hPa | 0 mm | - | 0 W/m² | - |
| 1777862258 | 20° C | 69% | 1016.1 hPa | 0 mm | - | 0 W/m² | - |
| 1777861954 | 20° C | 68% | 1016.2 hPa | 0 mm | - | 0 W/m² | - |
| 1777861650 | 20° C | 68% | 1016.2 hPa | 0 mm | - | 0 W/m² | - |
| 1777861346 | 20° C | 67% | 1016.1 hPa | 0 mm | - | 0 W/m² | - |
| 1777861044 | 20° C | 67% | 1016 hPa | 0 mm | - | 0 W/m² | - |
| 1777860741 | 20° C | 67% | 1016 hPa | 0 mm | - | 0 W/m² | - |
| 1777860437 | 20.56° C | 66% | 1016.1 hPa | 0 mm | - | 0 W/m² | - |
| 1777860134 | 20° C | 66% | 1016 hPa | 0 mm | - | 0 W/m² | - |
| 1777859830 | 20° C | 66% | 1016 hPa | 0 mm | - | 0 W/m² | - |
* Rain latest hour (hover to see other rain measurements)
** Current wind speed in m/s (hover to see current wind gust speed)